Weather History for Trenton, NJ

Change the Weather History Date:

Monday, August 18, 2014

  Actual Average Record
Temperature  
Mean Temperature 70 °F 74 °F  
Max Temperature 82 °F 84 °F 96 °F (2002)
Min Temperature 58 °F 64 °F 53 °F (1915)
Degree Days  
Heating Degree Days 0 0  
Month to date heating degree days 0 0  
Since 1 June heating degree days 3 24  
Since 1 July heating degree days 0 0  
Cooling Degree Days 5 9  
Month to date cooling degree days 125 176  
Year to date cooling degree days 689 753  
Since 1 June cooling degree days 645 696  
Growing Degree Days 19 (Base 50)    
Moisture  
Dew Point 54 °F    
Average Humidity 63    
Maximum Humidity 86    
Minimum Humidity 39    
Precipitation  
Precipitation 0.00 in 0.14 in 2.92 in (1932)
Month to date precipitation 1.29 2.51  
Year to date precipitation 29.29 29.39  
Sea Level Pressure  
Sea Level Pressure 29.86 in    
Wind  
Wind Speed 5 mph (NW)    
Max Wind Speed 14 mph    
Max Gust Speed 19 mph    
Visibility 10 miles    
Events      
T = Trace of Precipitation, MM = Missing Value Source: NWS Daily Summary

Daily Weather History Graph

Daily Weather History Graph

Search for Another Location

Airport:

Trip Planner

Search our weather history database for the weather conditions in past years. The results will help you decide how hot, cold, wet, or windy it might be!

Date:

Astronomy

Aug. 18, 2014 Rise Set
Actual Time 6:13 AM EDT 7:52 PM EDT
Civil Twilight 5:44 AM EDT 8:21 PM EDT
Nautical Twilight 5:09 AM EDT 8:55 PM EDT
Astronomical Twilight 4:32 AM EDT 9:32 PM EDT
Moon 12:18 AM EDT (8/18) 2:53 PM EDT (8/18)
Length of Visible Light 14h 36m
Length of Day
13h 38m
Last Quarter, 38% of the Moon is Illuminated
Aug 18
Last Quarter
Aug 25
New
Sep 2
First Quarter
Sep 8
Full
Sep 15
Last Quarter

Hourly Weather History & Observations

Time (EDT) Temp. Heat Index Dew Point Humidity Pressure Visibility Wind Dir Wind Speed Gust Speed Precip Events Conditions
12:53 AM 64.0 °F - 54.0 °F 70% 29.89 in 10.0 mi NW 5.8 mph - N/A   Clear
1:53 AM 62.1 °F - 53.1 °F 72% 29.89 in 10.0 mi WNW 5.8 mph - N/A   Clear
2:53 AM 62.1 °F - 54.0 °F 75% 29.88 in 10.0 mi NW 3.5 mph - N/A   Clear
3:53 AM 61.0 °F - 54.0 °F 78% 29.88 in 10.0 mi West 3.5 mph - N/A   Clear
4:53 AM 57.9 °F - 54.0 °F 87% 29.88 in 10.0 mi NW 4.6 mph - N/A   Clear
5:53 AM 61.0 °F - 53.1 °F 75% 29.90 in 10.0 mi WNW 5.8 mph - N/A   Clear
6:53 AM 59.0 °F - 54.0 °F 83% 29.91 in 10.0 mi WNW 4.6 mph - N/A   Clear
7:53 AM 62.1 °F - 55.0 °F 78% 29.92 in 10.0 mi NW 5.8 mph - N/A   Clear
8:53 AM 68.0 °F - 55.9 °F 65% 29.92 in 10.0 mi NNW 5.8 mph - N/A   Clear
9:53 AM 72.0 °F - 54.0 °F 53% 29.91 in 10.0 mi NNW 9.2 mph - N/A   Clear
10:53 AM 75.0 °F - 54.0 °F 48% 29.91 in 10.0 mi Variable 5.8 mph - N/A   Clear
11:53 AM 77.0 °F - 54.0 °F 45% 29.89 in 10.0 mi Variable 6.9 mph - N/A   Scattered Clouds
12:53 PM 79.0 °F - 52.0 °F 39% 29.86 in 9.0 mi North 5.8 mph - N/A   Partly Cloudy
1:53 PM 79.0 °F - 53.1 °F 40% 29.85 in 10.0 mi WNW 5.8 mph - N/A   Partly Cloudy
2:53 PM 80.1 °F 79.9 °F 53.1 °F 39% 29.83 in 10.0 mi WNW 9.2 mph 17.3 mph N/A   Scattered Clouds
3:53 PM 81.0 °F 80.5 °F 54.0 °F 39% 29.82 in 10.0 mi Variable 5.8 mph - N/A   Scattered Clouds
4:53 PM 81.0 °F 80.5 °F 54.0 °F 39% 29.81 in 10.0 mi West 5.8 mph - N/A   Clear
5:53 PM 81.0 °F 80.5 °F 54.0 °F 39% 29.81 in 10.0 mi Variable 5.8 mph - N/A   Clear
6:53 PM 80.1 °F 80.1 °F 55.0 °F 42% 29.80 in 10.0 mi NW 4.6 mph - N/A   Clear
7:53 PM 77.0 °F - 55.9 °F 48% 29.82 in 10.0 mi NNE 3.5 mph - N/A   Clear
8:53 PM 73.9 °F - 57.0 °F 55% 29.83 in 10.0 mi Calm Calm - N/A   Clear
9:53 PM 69.1 °F - 57.0 °F 65% 29.84 in 10.0 mi Calm Calm - N/A   Clear
10:53 PM 68.0 °F - 57.9 °F 70% 29.84 in 10.0 mi Calm Calm - N/A   Partly Cloudy